Lapse_Rate
6.5 6.6 6.6 6.7 6.7 6.6 6.2 6.0 5.9 5.3 5.1 5.5 5.3 5.5 5.2 5.4 5.3 5.2 5.2 5.3 5.3 5.4 5.1 5.0 5.0 5.0 5.1 5.1 5.3 5.4 5.3 5.4 5.9 6.0 5.8 5.9 6.0 6.0
6.5 6.7 6.6 6.7 6.7 6.6 6.4 6.0 6.0 5.9 5.7 4.8 5.2 5.3 5.5 5.0 5.3 5.0 5.0 5.1 5.0 5.2 5.1 5.2 5.3 5.1 4.9 4.8 5.2 5.6 6.0 5.9 5.9 6.2 6.3 6.2 6.1 6.0
6.6 6.7 6.8 6.8 6.9 7.0 6.7 6.4 6.3 6.2 6.1 6.0 5.3 5.9 5.7 5.2 5.3 5.1 5.1 5.1 5.1 5.6 5.0 4.9 4.9 4.8 4.9 4.9 5.4 5.8 5.9 6.1 6.2 6.1 6.2 6.3 6.3 6.1
6.8 6.9 7.0 7.1 7.1 7.1 7.0 6.7 6.6 6.6 6.4 6.3 5.7 5.7 6.0 5.6 5.4 5.3 5.4 5.0 4.5 4.8 5.2 5.1 5.0 5.1 5.0 5.4 5.7 6.0 6.4 6.3 6.3 6.2 6.2 6.2 6.0 6.1
7.0 7.0 7.2 7.3 7.4 7.2 7.1 7.0 6.9 6.8 6.8 6.6 6.2 6.2 5.9 6.0 5.8 5.4 5.4 5.4 5.3 5.3 5.2 5.4 5.4 5.6 5.6 5.8 5.9 6.2 6.4 6.7 6.6 6.5 6.7 6.6 6.5 6.4
7.2 7.2 7.3 7.4 7.5 7.4 7.2 7.1 7.0 7.1 7.0 6.7 6.6 6.4 6.2 6.1 6.0 5.5 5.2 5.4 5.7 5.2 4.6 4.5 5.2 5.8 5.7 5.6 5.6 6.0 6.2 6.6 6.8 6.8 6.9 6.8 6.8 6.7
7.3 7.3 7.3 7.4 7.5 7.6 7.5 7.5 7.3 7.1 6.8 6.8 6.9 6.9 6.8 6.3 5.6 5.4 5.8 5.8 4.8 5.1 5.3 5.5 4.9 5.4 5.6 5.6 6.1 6.0 6.6 6.9 7.0 7.1 7.0 7.0 6.8 6.7
7.4 7.5 7.5 7.5 7.6 7.7 7.6 7.6 7.5 7.6 7.4 7.2 7.0 6.9 6.8 6.6 6.5 5.9 5.7 5.8 5.2 4.8 4.9 5.4 5.2 5.8 5.9 5.3 5.7 6.1 6.1 6.3 6.8 7.0 7.2 7.3 7.2 7.0
7.6 7.6 7.5 7.5 7.7 7.6 7.6 7.5 7.6 7.9 7.7 7.9 7.3 6.9 6.7 6.7 6.7 6.1 5.8 5.5 5.2 5.1 5.5 5.7 5.4 5.7 6.2 6.0 6.4 6.5 6.7 6.8 7.0 7.1 7.1 7.1 7.3 7.3
7.6 7.7 7.6 7.5 7.6 7.8 7.8 7.7 7.7 7.7 8.0 7.9 7.4 7.3 7.2 6.7 6.5 6.3 5.8 5.7 5.4 5.4 5.6 5.9 5.8 6.2 6.5 6.5 6.6 6.6 7.0 7.2 7.3 7.2 7.1 7.1 7.2 7.3
7.4 7.4 7.5 7.6 7.6 7.6 7.8 7.7 7.7 7.7 7.8 8.0 7.4 7.4 7.1 7.0 6.8 6.5 6.3 5.9 5.5 5.4 5.6 5.9 5.8 6.1 6.5 6.6 6.6 6.7 6.9 7.3 7.5 7.3 7.0 7.0 7.1 7.3
8.0 7.8 7.9 7.8 7.8 7.8 7.7 7.8 7.7 7.9 7.8 7.8 7.6 7.4 7.0 7.3 7.1 6.6 6.3 6.2 5.5 5.2 4.9 5.1 5.2 5.9 6.6 6.6 6.6 6.7 6.8 7.0 7.3 7.3 7.3 7.3 7.5 7.3
8.4 8.2 8.4 8.4 8.4 8.3 8.0 8.1 7.9 7.5 7.5 7.4 7.3 7.2 7.0 7.2 7.0 6.7 6.5 6.2 5.5 5.1 5.6 6.0 5.8 6.2 6.7 6.7 6.7 6.7 6.9 6.9 7.1 7.0 7.0 7.0 7.0 7.0
8.5 8.5 8.0 8.4 8.5 8.2 8.0 8.2 7.9 7.2 7.3 7.7 7.3 7.1 7.0 6.7 6.6 7.1 6.9 6.2 5.5 5.1 5.7 6.2 5.8 6.2 6.6 6.8 6.9 6.8 7.0 6.9 6.9 7.1 7.0 6.8 6.6 6.7
7.9 8.2 7.9 7.7 7.8 7.8 7.8 7.6 7.4 7.0 8.2 6.8 6.0 7.2 6.6 6.5 6.8 7.2 7.1 6.2 5.8 5.5 5.6 6.3 6.2 6.3 6.6 7.0 7.0 6.9 6.9 7.0 6.8 6.9 6.9 6.8 6.7 6.5
8.2 7.9 7.6 7.8 7.7 7.7 7.6 7.3 6.8 6.9 6.7 6.5 6.1 6.2 5.6 6.2 6.7 7.0 6.9 6.6 5.5 5.5 6.0 6.4 6.2 6.4 6.8 6.9 6.9 7.1 7.0 6.9 6.8 6.7 6.8 6.6 6.8 6.6
8.3 8.2 8.0 7.7 7.2 7.4 7.7 7.5 6.9 7.0 5.3 5.3 5.9 6.1 4.9 5.5 6.5 6.6 6.7 6.2 6.0 5.7 5.7 6.9 7.3 7.1 6.9 6.7 6.9 7.2 7.2 7.0 6.9 6.5 6.3 6.7 6.8 6.7
8.2 7.8 7.9 7.7 7.5 7.5 7.2 6.9 6.7 6.4 6.2 5.5 5.5 6.1 4.9 5.0 6.5 6.1 6.1 5.6 5.8 5.7 5.9 5.6 5.8 6.6 7.1 7.0 7.0 7.4 7.2 6.9 6.9 6.4 6.2 6.3 6.7 6.6
7.7 7.4 7.7 7.6 7.5 7.7 7.2 6.8 6.7 5.9 5.1 5.2 5.0 5.3 5.3 5.1 5.9 5.5 5.7 5.5 5.6 5.6 5.8 5.9 6.0 6.6 6.7 6.5 6.6 7.1 7.2 7.0 6.7 6.4 6.4 6.2 6.4 6.7
7.8 7.7 7.8 7.9 7.8 7.6 6.9 6.6 6.7 6.2 6.0 5.8 5.0 4.9 5.0 5.5 5.6 5.5 5.1 5.4 5.6 5.7 5.9 6.0 6.1 6.6 6.7 6.6 6.7 6.9 7.1 6.9 6.8 6.5 6.3 6.1 6.1 6.4
6.8 6.7 6.6 7.2 7.4 7.4 7.3 7.0 6.3 6.4 5.8 5.4 5.0 5.1 5.4 5.7 5.6 5.5 4.7 5.2 5.7 5.8 5.7 5.8 6.2 6.6 6.5 6.6 6.7 7.0 7.0 6.8 6.6 6.4 6.2 6.2 6.0 6.1
5.5 5.8 6.2 6.6 7.0 7.3 7.1 7.0 6.1 6.2 4.9 5.1 5.7 5.4 5.3 5.4 5.2 4.7 5.3 5.5 5.8 5.7 5.7 5.7 6.5 6.5 6.4 6.5 6.6 6.9 6.9 6.7 6.5 6.4 6.1 6.0 5.6 5.7
5.0 5.1 5.0 6.6 6.4 6.8 6.4 6.4 5.9 5.8 5.3 5.5 5.6 5.3 5.4 5.1 4.9 5.0 5.6 5.5 5.5 6.0 5.7 6.0 6.2 6.4 6.4 6.4 6.6 6.8 6.8 6.6 6.4 6.2 5.9 5.7 5.6 5.7
Wind_Speed
8 8 7 6 6 6 5 4 5 5 5 7 4 8 5 7 8 8 10 19 19 16 15 14 13 14 14 12 12 12 12 11 11 13 15 15 14 14
9 10 8 8 7 6 5 5 5 5 6 3 5 4 6 6 12 8 9 12 17 14 15 14 14 13 13 12 12 11 9 8 8 9 10 11 12 12
10 9 10 9 8 7 7 7 6 6 7 6 4 6 4 4 5 8 10 10 12 22 19 15 12 12 12 12 12 10 11 11 10 9 8 8 9 9
14 11 11 10 10 8 7 7 7 6 7 5 6 4 6 8 7 5 10 14 12 19 14 11 10 11 14 14 11 12 13 11 12 14 13 13 9 11
14 14 13 13 11 10 10 8 9 6 6 8 8 7 6 7 8 6 6 9 12 16 19 16 15 13 15 14 15 14 13 12 12 12 12 11 10 10
15 15 15 14 14 12 10 10 8 8 9 8 8 8 7 7 6 6 7 8 8 11 14 10 12 14 17 19 20 20 18 14 12 10 11 11 12 13
16 16 15 15 15 14 11 12 10 9 9 9 9 9 9 7 6 7 6 6 6 7 7 6 6 7 14 23 24 23 19 14 12 11 11 14 16 18
16 16 15 16 16 18 17 11 13 11 10 9 9 9 7 6 6 7 6 6 6 2 3 6 6 5 12 7 12 8 11 6 5 9 11 12 13 15
17 16 16 15 17 16 16 16 13 12 13 10 10 9 6 5 4 2 6 7 8 3 3 6 7 8 8 10 16 14 10 4 1 6 8 12 12 12
19 19 18 18 17 19 17 17 18 15 12 11 10 10 8 6 3 6 6 5 6 8 6 7 7 6 6 8 11 11 8 5 6 9 12 12 13 13
18 18 19 18 17 22 18 16 16 16 18 21 15 7 7 8 7 7 7 5 7 9 6 8 4 5 5 6 3 13 12 11 11 13 17 17 16 14
19 19 20 21 18 24 20 17 16 15 15 13 11 8 10 10 12 9 7 8 8 7 3 8 4 5 6 6 3 10 10 15 15 19 22 23 21 10
17 17 18 25 20 25 24 17 16 13 13 11 9 8 9 10 8 11 11 8 8 8 3 2 4 6 6 7 7 6 8 8 10 11 15 24 23 16
18 15 15 21 21 20 18 14 11 10 9 7 7 10 12 10 9 10 13 11 9 2 7 2 3 6 6 8 7 6 6 7 8 7 11 13 8 18
16 11 20 19 22 18 19 13 12 8 9 10 11 10 10 11 10 9 11 9 5 6 7 6 4 4 6 8 7 7 7 7 7 7 8 8 7 12
10 6 3 11 19 15 12 11 9 8 11 10 7 5 11 9 8 9 9 7 8 9 14 12 10 6 6 7 6 7 7 7 7 7 7 8 12 13
14 5 5 9 10 11 10 12 10 11 9 7 8 7 7 7 9 9 8 9 10 9 8 9 11 10 6 6 7 6 5 6 6 6 8 9 9 9
9 10 10 11 13 14 16 14 13 12 11 8 6 5 9 8 9 7 8 8 8 8 7 6 9 9 8 13 18 7 5 6 6 7 8 9 9 9
14 13 13 13 13 13 13 15 13 14 13 10 7 8 9 9 10 8 8 9 9 8 6 5 6 7 7 8 3 19 2 5 7 8 8 9 10 9
13 14 14 14 12 13 12 11 10 10 11 9 9 9 11 10 9 9 10 10 9 8 7 7 7 7 7 7 5 3 16 6 6 8 9 9 10 17
15 13 14 13 12 11 11 11 13 12 12 10 11 11 11 10 10 10 10 5 7 8 8 7 6 2 2 3 7 6 1 19 8 5 8 9 10 10
14 15 15 14 14 12 12 11 12 12 12 11 11 10 10 9 9 11 11 10 8 8 7 6 8 5 6 8 8 7 6 4 17 21 23 17 7 10
6 10 14 13 10 12 12 13 13 13 13 12 11 10 9 10 8 9 10 9 9 9 9 8 7 6 8 7 7 6 8 9 5 7 7 11 17 15
Wind_Direction
201 212 237 241 221 227 229 246 267 290 229 165 234 183 250 181 192 211 233 204 209 219 227 234 244 252 255 262 263 263 264 267 271 280 288 289 283 281
220 192 217 238 230 227 236 227 240 264 283 144 197 190 180 256 160 210 230 168 201 215 225 231 243 255 264 270 273 275 276 281 284 280 283 287 288 290
220 205 203 243 248 219 225 236 233 232 249 260 216 124 166 241 187 204 219 227 233 209 209 214 233 252 263 271 270 278 291 302 304 304 298 292 292 294
212 217 210 212 232 257 244 226 233 233 246 251 276 180 204 194 234 229 253 260 255 184 199 214 231 254 267 265 272 282 291 296 305 308 311 306 293 297
211 210 213 209 209 223 222 231 218 234 227 247 264 223 231 204 203 229 249 252 276 177 195 213 230 242 255 261 267 276 275 272 285 293 303 309 309 306
210 213 211 209 210 207 228 219 249 224 213 246 246 255 231 220 219 249 234 224 248 254 206 232 210 230 242 249 253 251 242 257 257 269 282 284 287 288
213 211 215 210 201 206 209 215 212 220 238 226 230 250 250 235 207 220 226 264 283 262 262 281 251 237 226 235 237 240 234 251 258 265 268 276 288 291
222 213 217 196 199 198 205 225 204 209 220 237 240 240 247 238 240 251 261 258 284 48 241 269 267 231 267 319 184 168 199 204 263 288 292 283 284 289
219 218 211 215 199 206 209 214 221 216 224 213 241 258 261 248 250 264 255 273 267 266 223 276 293 281 307 124 147 157 157 151 250 276 283 288 286 284
221 218 217 218 200 199 205 212 219 217 218 220 230 235 237 250 214 232 253 265 272 262 256 252 263 299 305 300 157 154 152 180 232 261 278 272 274 277
225 220 221 218 207 186 202 209 208 217 208 202 227 193 160 161 184 221 229 228 255 256 207 228 265 283 286 287 274 169 195 215 233 249 260 263 263 267
222 223 206 214 198 181 197 204 206 206 208 190 199 176 176 167 168 208 230 225 239 267 152 225 236 286 292 290 294 207 245 232 235 241 250 259 263 261
219 218 216 201 192 185 195 198 206 193 190 185 193 221 215 212 199 207 216 235 243 253 92 204 245 268 277 285 294 302 298 309 311 307 266 257 260 249
217 226 224 186 184 182 182 184 165 174 176 178 183 211 207 200 199 198 200 219 258 307 139 155 254 273 288 287 291 301 305 315 318 300 303 303 259 246
228 231 197 178 173 167 174 145 147 181 184 184 206 194 208 193 193 181 173 172 222 228 213 194 239 278 281 278 286 296 308 307 317 314 314 303 313 329
214 227 181 182 164 156 144 154 173 210 204 190 206 196 208 181 164 171 180 171 210 220 215 193 201 217 259 269 281 287 305 303 312 309 325 320 310 306
223 171 169 160 151 156 171 174 191 173 210 197 201 183 209 177 177 175 188 184 207 223 191 189 200 219 241 261 263 259 277 289 315 329 325 311 300 295
188 200 195 186 176 180 180 178 179 174 195 200 198 167 189 193 177 183 191 220 218 220 226 226 173 216 223 220 226 250 277 304 327 326 305 303 313 320
203 204 201 193 186 180 188 180 177 179 190 189 175 180 186 187 180 187 192 218 223 229 230 230 223 238 255 265 332 214 293 317 314 302 311 319 311 316
205 201 198 191 188 175 187 190 178 170 174 177 182 180 185 188 182 202 203 207 219 224 216 211 226 233 245 268 293 323 220 250 279 311 314 309 300 302
210 197 195 179 166 166 171 176 173 166 186 176 179 187 179 187 191 195 220 220 208 212 221 223 220 72 259 286 265 257 238 208 215 268 300 299 307 316
215 196 187 162 159 166 172 170 175 154 178 183 183 178 181 187 197 198 209 193 204 219 225 232 151 193 231 241 262 275 274 323 212 235 250 250 296 312
295 285 161 139 158 163 168 164 171 163 175 177 172 177 179 193 203 205 199 212 199 196 221 216 215 211 238 246 260 279 275 265 305 310 318 202 224 231